New Bedford, MA

4:31 PM EDT on August 27, 2016 (GMT -0400)
New Bedford Regional

Weather History for KEWB - October, 2011

Change the Weather History Date:

Sunday, October 2, 2011

  Actual Average Record
Temperature  
Mean Temperature 62 °F -  
Max Temperature 70 °F 69 °F 85 °F (1971)
Min Temperature 53 °F 53 °F 37 °F (1997)
Degree Days  
Heating Degree Days 3    
Growing Degree Days 12 (Base 50)    
Moisture  
Dew Point 60 °F    
Average Humidity 87    
Maximum Humidity 97    
Minimum Humidity 68    
Precipitation  
Precipitation 0.07 in - - ()
Sea Level Pressure  
Sea Level Pressure 29.79 in    
Wind  
Wind Speed 2 mph (North)    
Max Wind Speed 9 mph    
Max Gust Speed -    
Visibility 6 miles    
Events Rain    
Averages and records for this station are not official NWS values.
T = Trace of Precipitation, MM = Missing Value Source: NWS Daily Summary

Daily Weather History Graph

Daily Weather History Graph

Search for Another Location

Airport or City:

Trip Planner

Search our weather history database for the weather conditions in past years. The results will help you decide how hot, cold, wet, or windy it might be!

Date:

Astronomy

Oct. 02, 2011 Rise Set
Actual Time 6:41 AM EDT 6:24 PM EDT
Civil Twilight 6:13 AM EDT 6:52 PM EDT
Nautical Twilight 5:41 AM EDT 7:24 PM EDT
Astronomical Twilight 5:08 AM EDT 7:56 PM EDT
Moon 12:49 PM EDT (10/2) 10:14 PM EDT (10/2)
Length of Visible Light 12h 38m
Length of Day
11h 42m
Waxing Crescent, 34% of the Moon is Illuminated
Oct 2
Waxing Crescent
Oct 3
First Quarter
Oct 11
Full
Oct 19
Last Quarter
Oct 26
New

Hourly Weather History & Observations

Time (EDT) Temp. Dew Point Humidity Pressure Visibility Wind Dir Wind Speed Gust Speed Precip Events Conditions
12:39 AM 64.4 °F 62.6 °F 94% 29.74 in 4.0 mi Calm Calm - N/A   Overcast
12:48 AM 64.4 °F 62.6 °F 94% 29.74 in 5.0 mi Calm Calm - N/A   Overcast
12:53 AM 63.0 °F 62.1 °F 97% 29.74 in 4.0 mi Calm Calm - N/A   Overcast
1:27 AM 62.6 °F 60.8 °F 94% 29.75 in 1.5 mi Calm Calm - N/A   Mostly Cloudy
1:41 AM 62.6 °F 60.8 °F 94% 29.75 in 3.0 mi Calm Calm - N/A   Mostly Cloudy
1:53 AM 63.0 °F 61.0 °F 93% 29.75 in 4.0 mi Calm Calm - N/A   Overcast
2:16 AM 62.6 °F 60.8 °F 94% 29.75 in 2.5 mi Calm Calm - N/A   Mostly Cloudy
2:27 AM 62.6 °F 60.8 °F 94% 29.74 in 2.5 mi Calm Calm - N/A   Mostly Cloudy
2:35 AM 62.6 °F 60.8 °F 94% 29.75 in 3.0 mi Calm Calm - N/A   Mostly Cloudy
2:47 AM 62.6 °F 60.8 °F 94% 29.75 in 2.5 mi Calm Calm - N/A   Mostly Cloudy
2:53 AM 61.0 °F 60.1 °F 97% 29.75 in 2.0 mi Calm Calm - N/A   Mostly Cloudy
3:40 AM 62.6 °F 60.8 °F 94% 29.75 in 3.0 mi North 3.5 mph - N/A   Overcast
3:53 AM 63.0 °F 61.0 °F 93% 29.76 in 3.0 mi Calm Calm - N/A   Overcast
4:11 AM 62.6 °F 60.8 °F 94% 29.76 in 2.5 mi North 4.6 mph - N/A   Overcast
4:28 AM 62.6 °F 60.8 °F 94% 29.76 in 1.8 mi North 4.6 mph - 0.00 in Rain Light Rain
4:35 AM 62.6 °F 60.8 °F 94% 29.76 in 2.0 mi North 3.5 mph - 0.00 in Rain Light Rain
4:46 AM 62.6 °F 60.8 °F 94% 29.76 in 2.5 mi North 3.5 mph - 0.00 in Rain Light Rain
4:53 AM 62.1 °F 61.0 °F 96% 29.77 in 2.5 mi North 3.5 mph - 0.00 in   Overcast
5:09 AM 62.6 °F 60.8 °F 94% 29.77 in 2.5 mi NNW 3.5 mph - N/A   Overcast
5:53 AM 62.6 °F 60.8 °F 94% 29.78 in 2.5 mi North 3.5 mph - N/A Rain Light Rain
6:10 AM 62.6 °F 60.8 °F 94% 29.79 in 3.0 mi Calm Calm - 0.00 in   Overcast
6:20 AM 62.6 °F 60.8 °F 94% 29.79 in 2.5 mi Calm Calm - 0.00 in Rain Light Rain
6:28 AM 62.6 °F 60.8 °F 94% 29.79 in 2.0 mi Calm Calm - 0.02 in Rain Rain
6:36 AM 62.6 °F 60.8 °F 94% 29.79 in 1.8 mi Calm Calm - 0.04 in Rain Rain
6:53 AM 63.0 °F 62.1 °F 97% 29.80 in 3.0 mi NE 6.9 mph - 0.06 in Rain Light Rain
7:53 AM 64.0 °F 61.0 °F 90% 29.80 in 8.0 mi ENE 8.1 mph - 0.01 in   Overcast
8:53 AM 66.0 °F 61.0 °F 84% 29.80 in 10.0 mi ENE 8.1 mph - N/A   Partly Cloudy
9:53 AM 69.1 °F 61.0 °F 75% 29.81 in 10.0 mi NE 8.1 mph - N/A   Partly Cloudy
10:41 AM 68.0 °F 60.8 °F 78% 29.81 in 10.0 mi NE 9.2 mph - N/A   Mostly Cloudy
10:53 AM 68.0 °F 60.8 °F 78% 29.82 in 10.0 mi NE 8.1 mph - N/A   Overcast
11:53 AM 68.0 °F 61.0 °F 78% 29.82 in 10.0 mi NNE 8.1 mph - N/A   Mostly Cloudy
12:53 PM 69.1 °F 61.0 °F 75% 29.81 in 10.0 mi NE 6.9 mph - N/A   Mostly Cloudy
1:51 PM 69.8 °F 60.8 °F 73% 29.79 in 10.0 mi Variable 5.8 mph - N/A   Scattered Clouds
1:53 PM 69.8 °F 60.8 °F 73% 29.79 in 10.0 mi North 6.9 mph - N/A   Scattered Clouds
2:16 PM 69.8 °F 60.8 °F 73% 29.79 in 10.0 mi NNW 4.6 mph - N/A   Mostly Cloudy
2:53 PM 68.0 °F 60.1 °F 76% 29.79 in 10.0 mi Calm Calm - N/A   Overcast
3:14 PM 69.8 °F 60.8 °F 73% 29.79 in 10.0 mi Variable 5.8 mph - N/A   Scattered Clouds
3:53 PM 70.0 °F 59.0 °F 68% 29.79 in 10.0 mi Variable 3.5 mph - N/A   Scattered Clouds
4:53 PM 68.0 °F 59.0 °F 73% 29.81 in 10.0 mi North 4.6 mph - N/A   Mostly Cloudy
5:53 PM 64.9 °F 59.0 °F 81% 29.83 in 10.0 mi Calm Calm - N/A   Mostly Cloudy
6:53 PM 64.9 °F 57.0 °F 75% 29.85 in 10.0 mi WSW 3.5 mph - N/A   Overcast
7:29 PM 62.6 °F 55.4 °F 77% 29.86 in 10.0 mi SSW 3.5 mph - N/A   Overcast
7:53 PM 63.0 °F 54.0 °F 72% 29.87 in 10.0 mi WSW 4.6 mph - N/A   Mostly Cloudy
8:53 PM 61.0 °F 53.1 °F 75% 29.88 in 10.0 mi WSW 4.6 mph - N/A   Overcast
9:53 PM 55.0 °F 52.0 °F 89% 29.90 in 10.0 mi Calm Calm - N/A   Clear
10:53 PM 54.0 °F 52.0 °F 93% 29.91 in 10.0 mi Calm Calm - N/A   Clear
11:53 PM 53.1 °F 51.1 °F 93% 29.91 in 9.0 mi Calm Calm - N/A   Clear